Weather History for Lumberton, NC

Change the Weather History Date:

Monday, April 22, 2013

  Actual Average Record
Temperature  
Mean Temperature 53 °F 63 °F  
Max Temperature 65 °F 76 °F 90 °F (2002)
Min Temperature 41 °F 50 °F 40 °F (2007)
Degree Days  
Heating Degree Days 12 4  
Month to date heating degree days 132 127  
Since 1 July heating degree days 2742 2703  
Cooling Degree Days 0 2  
Month to date cooling degree days 32 36  
Year to date cooling degree days 37 49  
Growing Degree Days 2 (Base 50)    
Moisture  
Dew Point 41 °F    
Average Humidity 65    
Maximum Humidity 82    
Minimum Humidity 48    
Precipitation  
Precipitation 0.00 in 0.10 in 0.38 in (2006)
Month to date precipitation 2.50 2.15  
Year to date precipitation 9.95 11.35  
Sea Level Pressure  
Sea Level Pressure 30.30 in    
Wind  
Wind Speed 13 mph (NNE)    
Max Wind Speed 22 mph    
Max Gust Speed 28 mph    
Visibility 10 miles    
Events      
T = Trace of Precipitation, MM = Missing Value Source: NWS Daily Summary

Daily Weather History Graph

Daily Weather History Graph

Search for Another Location

Airport:

Trip Planner

Search our weather history database for the weather conditions in past years. The results will help you decide how hot, cold, wet, or windy it might be!

Date:

Astronomy

Apr. 22, 2013 Rise Set
Actual Time 6:35 AM EDT 7:54 PM EDT
Civil Twilight 6:09 AM EDT 8:20 PM EDT
Nautical Twilight 5:38 AM EDT 8:51 PM EDT
Astronomical Twilight 5:05 AM EDT 9:24 PM EDT
Moon 4:48 PM EDT (4/22) 4:21 AM EDT (4/22)
Length of Visible Light 14h 10m
Length of Day
13h 18m
Waxing Gibbous, 87% of the Moon is Illuminated
Apr 22
Waxing Gibbous
Apr 25
Full
May 2
Last Quarter
May 9
New
May 18
First Quarter

Hourly Weather History & Observations

Time (EDT) Temp. Windchill Dew Point Humidity Pressure Visibility Wind Dir Wind Speed Gust Speed Precip Events Conditions
12:54 AM 48.0 °F - 37.9 °F 68% 30.42 in 10.0 mi NE 11.5 mph 16.1 mph N/A   Clear
1:54 AM 46.0 °F 41.4 °F 37.0 °F 71% 30.40 in 10.0 mi NE 9.2 mph - N/A   Clear
2:54 AM 44.1 °F 38.1 °F 37.0 °F 76% 30.38 in 10.0 mi NNE 11.5 mph - N/A   Clear
3:54 AM 43.0 °F 36.0 °F 36.0 °F 76% 30.35 in 10.0 mi NNE 13.8 mph 20.7 mph N/A   Clear
4:54 AM 43.0 °F 36.4 °F 36.0 °F 76% 30.36 in 10.0 mi NNE 12.7 mph - N/A   Scattered Clouds
5:54 AM 42.1 °F 36.1 °F 37.0 °F 82% 30.35 in 10.0 mi NE 10.4 mph - N/A   Clear
6:54 AM 41.0 °F 35.2 °F 36.0 °F 82% 30.36 in 10.0 mi NE 9.2 mph - N/A   Clear
7:54 AM 43.0 °F 36.8 °F 36.0 °F 76% 30.37 in 10.0 mi NNE 11.5 mph - N/A   Clear
8:54 AM 46.9 °F - 37.9 °F 71% 30.36 in 10.0 mi NNE 12.7 mph 19.6 mph N/A   Clear
9:54 AM 48.0 °F - 39.0 °F 71% 30.36 in 10.0 mi NE 16.1 mph 21.9 mph N/A   Clear
10:54 AM 54.0 °F - 42.1 °F 64% 30.36 in 10.0 mi NE 17.3 mph 24.2 mph N/A   Clear
11:54 AM 57.0 °F - 43.0 °F 59% 30.33 in 10.0 mi NNE 12.7 mph 19.6 mph N/A   Partly Cloudy
12:54 PM 62.1 °F - 46.0 °F 56% 30.30 in 9.0 mi North 15.0 mph 24.2 mph N/A   Scattered Clouds
1:54 PM 62.1 °F - 45.0 °F 53% 30.28 in 10.0 mi North 13.8 mph 19.6 mph N/A   Mostly Cloudy
2:54 PM 64.9 °F - 46.0 °F 50% 30.26 in 10.0 mi NNE 8.1 mph 17.3 mph N/A   Partly Cloudy
3:54 PM 64.9 °F - 45.0 °F 48% 30.23 in 10.0 mi NNE 12.7 mph 23.0 mph N/A   Clear
4:54 PM 64.0 °F - 45.0 °F 50% 30.21 in 10.0 mi NE 13.8 mph 23.0 mph N/A   Mostly Cloudy
5:54 PM 62.1 °F - 43.0 °F 50% 30.20 in 10.0 mi NNE 16.1 mph 21.9 mph N/A   Mostly Cloudy
6:54 PM 60.1 °F - 43.0 °F 53% 30.21 in 10.0 mi NNE 17.3 mph 21.9 mph N/A   Mostly Cloudy
7:54 PM 59.0 °F - 44.1 °F 58% 30.22 in 10.0 mi NNE 12.7 mph - N/A   Overcast
8:54 PM 57.9 °F - 45.0 °F 62% 30.23 in 10.0 mi NE 12.7 mph - N/A   Overcast
9:54 PM 55.9 °F - 45.0 °F 67% 30.24 in 10.0 mi NE 8.1 mph 18.4 mph N/A   Overcast
10:54 PM 55.0 °F - 45.0 °F 69% 30.24 in 10.0 mi NNE 16.1 mph 24.2 mph N/A   Overcast
11:54 PM 54.0 °F - 45.0 °F 72% 30.23 in 10.0 mi NE 11.5 mph 20.7 mph N/A   Overcast